Flag for US Virgin Islands Weather past 2 weeks in Cruz Bay, US Virgin Islands

89 °F


Feels Like: 99 °F
Forecast: 83 / 89 °F
Wind: 15 mph from Southeast

Location: Cyril E. King International Airport

Current Time: Oct 7, 2015 at 12:21:02 PM

Latest Report: Oct 7, 2015 at 11:53 AM

Visibility: 10 mi

Pressure: 29.99 "Hg

Humidity: 63%

Dew point: 75 °F

Location of Cruz BayLocation

Historic Weather in Cruz Bay — Graph


Cruz Bay temperature yesterday

Maximum temperature yesterday: 88 °F (at 9:53 AM)
Minimum temperature yesterday: 82 °F (at 11:53 PM)
Average temperature yesterday: 85 °F

Past Weeks' High & Low Weather Summary

High89 °F (Sep 25, 12:53 PM)100% (Oct 3, 11:17 AM)30.04 "Hg (Oct 3, 11:17 AM)
Low75 °F (Oct 3, 9:53 AM)57% (Sep 29, 3:53 PM)29.74 "Hg (Oct 1, 3:53 PM)
Average84 °F75%29.89 "Hg
* Reported Sep 22 10:53 AM — Oct 7 10:53 AM, Cruz Bay, Weather by CustomWeather, © 2015

Note: Actual official high and low records may vary slightly from our data, if they occured in-between our weather recording intervals... More about our weather records


Cruz Bay weather history for previous 24 hours

Time TempWeatherWind HumidityBarometerVisibility
10:53 AM
Wed, Oct 7
89 °FPassing clouds.13 mph61%30.00 "Hg10 mi
9:53 AM87 °FSunny.15 mph65%30.01 "Hg10 mi
8:53 AM86 °FScattered clouds.13 mph72%30.00 "Hg10 mi
7:53 AM84 °FSunny.13 mph80%29.98 "Hg10 mi
6:53 AM81 °FSunny.8 mph85%29.96 "Hg10 mi
5:53 AM81 °FLight rain. Partly cloudy.8 mph85%29.95 "Hg9 mi
4:53 AM82 °FPassing clouds.7 mph79%29.93 "Hg10 mi
3:53 AM80 °FLight rain. Mostly cloudy.7 mph85%29.92 "Hg10 mi
2:53 AM82 °FClear.7 mph79%29.92 "Hg10 mi
1:53 AM81 °FClear.5 mph79%29.94 "Hg10 mi
12:53 AM82 °FClear.8 mph77%29.96 "Hg10 mi
11:53 PM
Tue, Oct 6
82 °FClear.10 mph77%29.97 "Hg10 mi
10:53 PM83 °FClear.5 mph77%29.98 "Hg10 mi
9:53 PM83 °FClear.6 mph77%29.99 "Hg10 mi
8:53 PM83 °FClear.7 mph79%29.99 "Hg10 mi
7:53 PM83 °FClear.5 mph79%29.98 "Hg10 mi
6:53 PM84 °FClear.9 mph77%29.97 "Hg10 mi
5:53 PM86 °FPassing clouds.10 mph70%29.96 "Hg10 mi
4:53 PM86 °FSunny.10 mph70%29.96 "Hg10 mi
3:53 PM87 °FScattered clouds.12 mph69%29.96 "Hg10 mi
2:53 PM88 °FSunny.9 mph67%29.96 "Hg10 mi
1:53 PM88 °FPassing clouds.15 mph67%29.97 "Hg10 mi
12:53 PM87 °FPassing clouds.14 mph67%29.99 "Hg10 mi
Weather by CustomWeather, © 2015

See weather overviewHow to use our weather pages